| time (UTC) | temp F | wind direction | speed MPH | gust MPH | rain 1hr in | rain 24hr in | rain mn in | humidity % | barometer mb |
| 20260505053309 | 51 | 46 | 3.0 | 6.0 | 0.10 | 0.65 | 0.65 | 97 | 1011.8 |
| 20260505051309 | 50 | 321 | 3.0 | 6.0 | 0.06 | 0.61 | 0.61 | 97 | 1011.8 |
| 20260505050309 | 50 | 314 | 3.0 | 5.0 | 0.06 | 0.59 | 0.59 | 97 | 1011.8 |
| 20260505041310 | 51 | 322 | 3.0 | 9.0 | 0.12 | 0.54 | 0.54 | 97 | 1011.9 |
| 20260505040310 | 51 | 314 | 3.0 | 6.0 | 0.11 | 0.53 | 0.53 | 97 | 1012.1 |
| 20260505034310 | 51 | 1 | 4.0 | 8.0 | 0.07 | 0.47 | 0.47 | 97 | 1012.3 |
| 20260505033310 | 51 | 41 | 2.0 | 5.0 | 0.06 | 0.45 | 0.45 | 97 | 1012.3 |
| 20260505031310 | 51 | 319 | 2.0 | 5.0 | 0.08 | 0.43 | 0.43 | 97 | 1012.4 |
| 20260505030310 | 51 | 21 | 4.0 | 5.0 | 0.09 | 0.42 | 0.42 | 97 | 1012.4 |
| 20260505025310 | 51 | 311 | 2.0 | 6.0 | 0.09 | 0.41 | 0.41 | 97 | 1012.5 |
| 20260505024310 | 51 | 324 | 2.0 | 5.0 | 0.09 | 0.40 | 0.40 | 96 | 1012.5 |
| 20260505022310 | 52 | 314 | 2.0 | 6.0 | 0.08 | 0.36 | 0.36 | 96 | 1012.4 |
| 20260505021310 | 52 | 326 | 3.0 | 6.0 | 0.08 | 0.35 | 0.35 | 96 | 1012.4 |
| 20260505020310 | 52 | 302 | 3.0 | 5.0 | 0.09 | 0.33 | 0.33 | 96 | 1012.5 |
| 20260505014310 | 52 | 1 | 2.0 | 5.0 | 0.13 | 0.31 | 0.31 | 96 | 1012.7 |
| 20260505011310 | 53 | 327 | 3.0 | 7.0 | 0.14 | 0.27 | 0.27 | 96 | 1012.8 |
| 20260505010310 | 53 | 354 | 3.0 | 7.0 | 0.13 | 0.24 | 0.24 | 96 | 1012.9 |
| 20260505005310 | 53 | 13 | 4.0 | 6.0 | 0.12 | 0.22 | 0.22 | 96 | 1012.9 |
| 20260505004310 | 53 | 354 | 5.0 | 8.0 | 0.10 | 0.19 | 0.19 | 95 | 1013.0 |
| 20260505003310 | 53 | 4 | 5.0 | 11.0 | 0.09 | 0.17 | 0.17 | 95 | 1013.1 |
| 20260505002310 | 53 | 314 | 5.0 | 8.0 | 0.09 | 0.14 | 0.14 | 95 | 1013.2 |
| 20260505001310 | 53 | 14 | 4.0 | 8.0 | 0.09 | 0.13 | 0.13 | 95 | 1013.3 |
| 20260505000310 | 54 | 327 | 3.0 | 8.0 | 0.09 | 0.12 | 0.12 | 94 | 1013.2 |
| 20260504235310 | 54 | 300 | 3.0 | 6.0 | 0.08 | 0.10 | 0.10 | 94 | 1013.4 |
| 20260504232310 | 54 | 1 | 1.0 | 4.0 | 0.04 | 0.05 | 0.05 | 93 | 1013.5 |
| 20260504231310 | 54 | 302 | 1.0 | 2.0 | 0.04 | 0.04 | 0.04 | 93 | 1013.5 |
| 20260504224310 | 55 | 331 | 2.0 | 5.0 | 0.02 | 0.02 | 0.02 | 92 | 1013.4 |
| 20260504223310 | 55 | 11 | 3.0 | 6.0 | 0.01 | 0.01 | 0.01 | 92 | 1013.5 |
| 20260504221309 | 55 | 300 | 2.0 | 3.0 | 0.00 | 0.00 | 0.00 | 91 | 1013.5 |
| 20260504220310 | 55 | 327 | 1.0 | 2.0 | 0.00 | 0.00 | 0.00 | 91 | 1013.6 |
| 20260504215310 | 55 | 306 | 2.0 | 3.0 | 0.00 | 0.00 | 0.00 | 91 | 1013.6 |
| 20260504214309 | 55 | 1 | 2.0 | 3.0 | 0.00 | 0.00 | 0.00 | 91 | 1013.6 |
| 20260504213309 | 55 | 1 | 1.0 | 4.0 | 0.00 | 0.00 | 0.00 | 91 | 1013.7 |
| 20260504210309 | 55 | 331 | 4.0 | 6.0 | 0.00 | 0.00 | 0.00 | 91 | 1013.9 |
| 20260504205309 | 55 | 330 | 2.0 | 5.0 | 0.00 | 0.00 | 0.00 | 91 | 1013.9 |
| 20260504204309 | 55 | 331 | 2.0 | 4.0 | 0.00 | 0.00 | 0.00 | 91 | 1013.9 |
| 20260504203310 | 55 | 322 | 2.0 | 3.0 | 0.00 | 0.00 | 0.00 | 91 | 1013.9 |
| 20260504201310 | 56 | 309 | 3.0 | 5.0 | 0.00 | 0.00 | 0.00 | 90 | 1013.8 |
| 20260504195309 | 56 | 327 | 3.0 | 7.0 | 0.00 | 0.00 | 0.00 | 90 | 1013.5 |
| 20260504192309 | 56 | 328 | 3.0 | 5.0 | 0.00 | 0.00 | 0.00 | 90 | 1013.6 |
| 20260504191309 | 56 | 276 | 2.0 | 4.0 | 0.00 | 0.00 | 0.00 | 89 | 1013.4 |
| 20260504190309 | 56 | 307 | 3.0 | 5.0 | 0.00 | 0.00 | 0.00 | 89 | 1013.2 |
| 20260504185309 | 56 | 1 | 2.0 | 5.0 | 0.00 | 0.00 | 0.00 | 89 | 1013.2 |
| 20260504184309 | 56 | 324 | 2.0 | 5.0 | 0.00 | 0.00 | 0.00 | 89 | 1013.2 |
| 20260504183309 | 56 | 1 | 1.0 | 5.0 | 0.00 | 0.00 | 0.00 | 89 | 1013.2 |
| 20260504182309 | 56 | 347 | 1.0 | 4.0 | 0.00 | 0.00 | 0.00 | 89 | 1013.4 |
| 20260504181309 | 56 | 11 | 2.0 | 5.0 | 0.00 | 0.00 | 0.00 | 89 | 1013.3 |
| 20260504180309 | 56 | 347 | 2.0 | 4.0 | 0.00 | 0.00 | 0.00 | 89 | 1013.2 |
| 20260504175309 | 56 | 68 | 3.0 | 5.0 | 0.00 | 0.00 | 0.00 | 89 | 1013.1 |
| 20260504174309 | 56 | 72 | 4.0 | 6.0 | 0.00 | 0.00 | 0.00 | 89 | 1013.2 |
| 20260504172309 | 56 | 100 | 4.0 | 7.0 | 0.00 | 0.00 | 0.00 | 89 | 1013.1 |
| 20260504171309 | 56 | 63 | 4.0 | 7.0 | 0.00 | 0.00 | 0.00 | 88 | 1013.0 |
| 20260504170309 | 56 | 51 | 3.0 | 8.0 | 0.00 | 0.00 | 0.00 | 88 | 1013.0 |
| 20260504160309 | 58 | 25 | 2.0 | 5.0 | 0.00 | 0.00 | 0.00 | 87 | 1013.2 |
| 20260504150309 | 59 | 72 | 4.0 | 10.0 | 0.00 | 0.00 | 0.00 | 86 | 1013.1 |
| 20260504141309 | 59 | 27 | 6.0 | 10.0 | 0.00 | 0.00 | 0.00 | 85 | 1013.4 |
| 20260504140310 | 59 | 98 | 4.0 | 7.0 | 0.00 | 0.00 | 0.00 | 85 | 1013.6 |
| 20260504130310 | 59 | 93 | 5.0 | 11.0 | 0.00 | 0.00 | 0.00 | 85 | 1013.7 |
| 20260504120310 | 58 | 53 | 5.0 | 10.0 | 0.00 | 0.00 | 0.00 | 87 | 1013.7 |
| 20260504110309 | 59 | 81 | 5.0 | 10.0 | 0.00 | 0.00 | 0.00 | 88 | 1014.2 |
| 20260504081309 | 56 | 56 | 3.0 | 5.0 | 0.00 | 0.00 | 0.00 | 93 | 1013.7 |
| 20260504080309 | 56 | 59 | 3.0 | 5.0 | 0.00 | 0.00 | 0.00 | 95 | 1013.5 |
| 20260504070309 | 53 | 331 | 1.0 | 2.0 | 0.00 | 0.00 | 0.00 | 97 | 1013.0 |